Welcome to Northern Hawkes Bay. New Zealand.
PWS Header
      nz Flag



Hit Counter


W3C Valid W3C Valid logo


    Wairoa

Select any of the Stations below to visit their websites.










Historic Data from Weather Underground
Select the location of interest below. Wairoa is the default. Please have patience, this Data is slow to load in.
Northern Hawkes Bay Historical Data
Daily Summary for January 29, 2017 Units:  English    Metric   Both
« Previous Day
Next Day »
Daily Weekly Monthly Yearly Custom
  High: Low: Average:
Temperature: 89.4 °F 59 °F 73.4 °F
Dew Point: 58.3 °F 47.8 °F 54.3 °F
Humidity: 90% 26% 56%
Wind Speed: 13mph 0mph 5.1mph
Wind Gust: 21.3mph - -
Wind- - West
Pressure: 30.2 in 29.9 in -
Precipitation: 0 in    
Historical Graphs
 
 
Tabular Data for January 29, 2017
Time Temperature Dew Point Pressure Wind Wind Speed Wind Gust Humidity Rainfall Rate (Hourly) solar
00:02 62.6 °F 56.7 °F 30.2 in NNE 0.7 mph 3.1 mph 81% 0 in 0 W/m2
00:07 62.4 °F 56.8 °F 30.2 in Calm   3.1 mph 82% 0 in 0 W/m2
00:12 62.4 °F 57.2 °F 30.2 in Calm   4.5 mph 83% 0 in 0 W/m2
00:17 62.4 °F 57.2 °F 30.2 in NNE 0.7 mph 4.5 mph 83% 0 in 0 W/m2
00:22 62.4 °F 57.2 °F 30.2 in Calm   3.1 mph 83% 0 in 0 W/m2
00:27 62.2 °F 57 °F 30.2 in Calm   3.1 mph 83% 0 in 0 W/m2
00:32 62.1 °F 56.8 °F 30.2 in Calm     83% 0 in 0 W/m2
00:37 62.1 °F 56.8 °F 30.2 in Calm     83% 0 in 0 W/m2
00:42 62.1 °F 57.2 °F 30.2 in Calm   2.2 mph 84% 0 in 0 W/m2
00:47 62.1 °F 57.2 °F 30.2 in NE 2.2 mph 4.5 mph 84% 0 in 0 W/m2
00:52 62.1 °F 57.2 °F 30.2 in NNE 3.8 mph 5.4 mph 84% 0 in 0 W/m2
00:57 62.6 °F 57.7 °F 30.2 in North 2.2 mph 6 mph 84% 0 in 0 W/m2
01:02 63 °F 57.7 °F 30.2 in North 2.2 mph 6 mph 83% 0 in 0 W/m2
01:07 63 °F 57.7 °F 30.2 in North 3.1 mph 4.5 mph 83% 0 in 0 W/m2
01:12 63 °F 57.7 °F 30.2 in NNW 2.2 mph 5.4 mph 83% 0 in 0 W/m2
01:17 63.1 °F 57.9 °F 30.2 in NNW 2.2 mph 5.4 mph 83% 0 in 0 W/m2
01:22 63.1 °F 57.9 °F 30.2 in North 2.2 mph 5.4 mph 83% 0 in 0 W/m2
01:27 63.5 °F 58.3 °F 30.2 in North 3.1 mph 6.9 mph 83% 0 in 0 W/m2
01:32 63.5 °F 58.3 °F 30.2 in North 1.6 mph 6.9 mph 83% 0 in 0 W/m2
01:37 63.5 °F 58.3 °F 30.2 in North 3.1 mph 5.4 mph 83% 0 in 0 W/m2
01:42 63.3 °F 58.1 °F 30.2 in North 1.6 mph 5.4 mph 83% 0 in 0 W/m2
01:47 63.3 °F 58.1 °F 30.2 in North 1.6 mph 5.4 mph 83% 0 in 0 W/m2
01:52 63.3 °F 58.1 °F 30.2 in North 1.6 mph 4.5 mph 83% 0 in 0 W/m2
01:57 63.1 °F 57.9 °F 30.1 in North 1.6 mph 4.5 mph 83% 0 in 0 W/m2
02:02 63 °F 57.7 °F 30.1 in North 1.6 mph 4.5 mph 83% 0 in 0 W/m2
02:07 62.8 °F 57.6 °F 30.1 in North 0.7 mph 3.8 mph 83% 0 in 0 W/m2
02:12 62.6 °F 57.4 °F 30.1 in Calm   3.8 mph 83% 0 in 0 W/m2
02:17 62.6 °F 57.7 °F 30.1 in Calm   2.2 mph 84% 0 in 0 W/m2
02:18 62.4 °F 57.9 °F 30.1 in Calm   2.2 mph 85% 0 in 0 W/m2
02:23 62.2 °F 57.7 °F 30.1 in Calm   2.2 mph 85% 0 in 0 W/m2
02:28 61.7 °F 57.2 °F 30.1 in NW 0.7 mph 2.2 mph 85% 0 in 0 W/m2
02:33 61.3 °F 56.8 °F 30.1 in NW 1.6 mph 2.2 mph 85% 0 in 0 W/m2
02:38 61.2 °F 57 °F 30.1 in NW 0.7 mph 2.2 mph 86% 0 in 0 W/m2
02:43 61 °F 57 °F 30.1 in NW 1.6 mph 3.1 mph 87% 0 in 0 W/m2
02:48 60.6 °F 57 °F 30.1 in NW 0.7 mph 3.1 mph 88% 0 in 0 W/m2
02:53 60.4 °F 57.2 °F 30.1 in NW 0.7 mph 3.1 mph 89% 0 in 0 W/m2
02:58 60.4 °F 57.2 °F 30.1 in NNW 1.6 mph 3.1 mph 89% 0 in 0 W/m2
03:03 60.6 °F 57.7 °F 30.1 in NNW 2.2 mph 3.1 mph 90% 0 in 0 W/m2
03:09 61 °F 57.4 °F 30.1 in North 2.2 mph 3.8 mph 88% 0 in 0 W/m2
03:14 61.2 °F 57.6 °F 30.1 in NNW 3.1 mph 3.8 mph 88% 0 in 0 W/m2
03:19 61.3 °F 57.6 °F 30.1 in North 2.2 mph 3.8 mph 87% 0 in 0 W/m2
03:24 61.3 °F 57.6 °F 30.1 in NNW 1.6 mph 3.8 mph 87% 0 in 0 W/m2
03:29 61.3 °F 57 °F 30.1 in NNW 1.6 mph 4.5 mph 86% 0 in 0 W/m2
03:34 61.2 °F 57 °F 30.1 in NNW 2.2 mph 4.5 mph 86% 0 in 0 W/m2
03:39 61 °F 57 °F 30.1 in NNW 2.2 mph 3.8 mph 87% 0 in 0 W/m2
03:44 61 °F 57 °F 30.1 in NNW 2.2 mph 3.8 mph 87% 0 in 0 W/m2
03:49 61 °F 57 °F 30.1 in NNW 1.6 mph 3.8 mph 87% 0 in 0 W/m2
03:54 61 °F 57 °F 30.1 in NNW 1.6 mph 3.8 mph 87% 0 in 0 W/m2
03:59 61.2 °F 57 °F 30.1 in NNW 2.2 mph 4.5 mph 86% 0 in 0 W/m2
04:04 61.3 °F 56.8 °F 30.1 in NNW 3.8 mph 5.4 mph 85% 0 in 0 W/m2
04:09 61.5 °F 57 °F 30.1 in NNW 1.6 mph 6 mph 85% 0 in 0 W/m2
04:14 61.5 °F 56.7 °F 30.1 in North 4.5 mph 6 mph 84% 0 in 0 W/m2
04:19 61.5 °F 56.7 °F 30.1 in North 3.1 mph 5.4 mph 84% 0 in 0 W/m2
04:24 61.7 °F 56.5 °F 30.1 in NNW 2.2 mph 6 mph 83% 0 in 0 W/m2
04:29 61.7 °F 56.5 °F 30.1 in NNW 2.2 mph 6 mph 83% 0 in 0 W/m2
04:34 61.7 °F 56.5 °F 30.1 in North 4.5 mph 6 mph 83% 0 in 0 W/m2
04:39 61.7 °F 56.5 °F 30.1 in North 3.1 mph 6 mph 83% 0 in 0 W/m2
04:44 61.7 °F 56.5 °F 30.1 in North 1.6 mph 6 mph 83% 0 in 0 W/m2
04:49 61.5 °F 56.3 °F 30.1 in North 2.2 mph 6 mph 83% 0 in 0 W/m2
04:54 61.5 °F 56.3 °F 30.1 in North 3.8 mph 6 mph 83% 0 in 0 W/m2
04:59 61.5 °F 56.3 °F 30.1 in North 3.1 mph 6 mph 83% 0 in 0 W/m2
05:04 61.3 °F 56.1 °F 30.1 in North 2.2 mph 6 mph 83% 0 in 0 W/m2
05:09 61.2 °F 55.9 °F 30.1 in NNW 3.1 mph 4.5 mph 83% 0 in 0 W/m2
05:14 60.8 °F 55.9 °F 30.1 in NNW 0.7 mph 3.8 mph 84% 0 in 0 W/m2
05:19 60.3 °F 55.8 °F 30.1 in NW 1.6 mph 3.8 mph 85% 0 in 0 W/m2
05:21 60.1 °F 55.6 °F 30.1 in Calm   3.8 mph 85% 0 in 0 W/m2
05:26 59.7 °F 55.6 °F 30.1 in NW 1.6 mph 3.1 mph 86% 0 in 0 W/m2
05:31 59.5 °F 55.8 °F 30.1 in NW 1.6 mph 3.1 mph 87% 0 in 0 W/m2
05:36 59.4 °F 55.8 °F 30.1 in NNW 0.7 mph 3.1 mph 88% 0 in 0 W/m2
05:41 59.2 °F 55.6 °F 30.1 in NNW 0.7 mph 3.1 mph 88% 0 in 0 W/m2
05:46 59 °F 55.8 °F 30.1 in NNW 1.6 mph 3.1 mph 89% 0 in 0 W/m2
05:51 59 °F 55.8 °F 30.1 in North 1.6 mph 3.1 mph 89% 0 in 0 W/m2
05:56 59.4 °F 56.1 °F 30.1 in North 1.6 mph 3.8 mph 89% 0 in 0 W/m2
06:01 59.5 °F 55.9 °F 30.1 in North 2.2 mph 3.8 mph 88% 0 in 0 W/m2
06:06 59.7 °F 55.9 °F 30.1 in NNW 1.6 mph 3.8 mph 87% 0 in 0 W/m2
06:11 59.7 °F 55.9 °F 30.1 in NNW 1.6 mph 3.8 mph 87% 0 in 0 W/m2
06:16 59.7 °F 55.9 °F 30.1 in NNW 1.6 mph 3.8 mph 87% 0 in 3 W/m2
06:21 59.5 °F 55.8 °F 30.1 in NNW 2.2 mph 3.8 mph 87% 0 in 5 W/m2
06:26 59.5 °F 55.8 °F 30.1 in NNW 2.2 mph 3.8 mph 87% 0 in 8 W/m2
06:31 59.4 °F 55.2 °F 30.1 in NW 1.6 mph 3.8 mph 86% 0 in 13 W/m2
06:36 59.4 °F 55.6 °F 30.1 in NW 3.1 mph 4.5 mph 87% 0 in 24 W/m2
06:41 59.5 °F 55.8 °F 30.1 in NNW 2.2 mph 4.5 mph 87% 0 in 33 W/m2
06:46 60.1 °F 55.9 °F 30.1 in NNW 2.2 mph 4.5 mph 86% 0 in 42 W/m2
06:51 60.8 °F 55.9 °F 30.1 in NNW 3.8 mph 5.4 mph 84% 0 in 49 W/m2
06:56 61.5 °F 56.3 °F 30.1 in NNW 2.2 mph 5.4 mph 83% 0 in 56 W/m2
07:01 62.1 °F 56.5 °F 30.1 in North 4.5 mph 6 mph 82% 0 in 62 W/m2
07:06 62.8 °F 55.8 °F 30.1 in North 3.8 mph 6 mph 78% 0 in 68 W/m2
07:11 63.7 °F 55.9 °F 30.1 in North 3.1 mph 6 mph 76% 0 in 77 W/m2
07:16 64.4 °F 56.3 °F 30.1 in NNW 3.1 mph 6 mph 75% 0 in 86 W/m2
07:21 65.1 °F 56.7 °F 30.1 in NNW 2.2 mph 6 mph 74% 0 in 95 W/m2
07:26 65.7 °F 56.5 °F 30.1 in North 3.1 mph 6.9 mph 72% 0 in 107 W/m2
07:31 66.4 °F 56.3 °F 30.1 in North 3.1 mph 6.9 mph 70% 0 in 121 W/m2
07:36 66.7 °F 55.9 °F 30.1 in North 4.5 mph 10.7 mph 68% 0 in 133 W/m2
07:41 66.9 °F 55.6 °F 30.1 in North 5.4 mph 10.7 mph 67% 0 in 147 W/m2
07:46 67.3 °F 55.9 °F 30.1 in North 3.8 mph 11.4 mph 67% 0 in 159 W/m2
07:51 67.6 °F 56.3 °F 30.1 in North 6.9 mph 11.4 mph 67% 0 in 173 W/m2
07:56 67.8 °F 55.6 °F 30.1 in North 7.6 mph 13 mph 65% 0 in 185 W/m2
08:01 68.2 °F 55.6 °F 30.1 in North 7.6 mph 13 mph 64% 0 in 198 W/m2
08:06 68.5 °F 55.9 °F 30.1 in North 5.4 mph 10.7 mph 64% 0 in 209 W/m2
08:11 68.7 °F 55.6 °F 30.1 in North 6.9 mph 13 mph 63% 0 in 221 W/m2
08:16 69.3 °F 56.1 °F 30.1 in North 7.6 mph 13 mph 63% 0 in 235 W/m2
08:21 69.6 °F 55.6 °F 30.1 in North 6.9 mph 15.9 mph 61% 0 in 250 W/m2
08:26 70.2 °F 56.1 °F 30.1 in North 6.9 mph 15.9 mph 61% 0 in 264 W/m2
08:31 70.5 °F 55 °F 30.1 in North 6 mph 12.1 mph 58% 0 in 277 W/m2
08:36 70.9 °F 54.9 °F 30.1 in North 6 mph 10.7 mph 57% 0 in 295 W/m2
08:41 70.9 °F 54.9 °F 30.1 in North 10.7 mph 14.5 mph 57% 0 in 310 W/m2
08:46 71.2 °F 55.2 °F 30.1 in NNE 8.3 mph 14.5 mph 57% 0 in 320 W/m2
08:51 71.1 °F 54.7 °F 30.1 in NNE 6.9 mph 14.5 mph 56% 0 in 335 W/m2
08:56 71.6 °F 54.1 °F 30.1 in NNE 6 mph 14.5 mph 54% 0 in 349 W/m2
09:01 72.1 °F 54.7 °F 30.1 in North 6 mph 13.6 mph 54% 0 in 365 W/m2
09:06 72 °F 54.3 °F 30.1 in NNE 6.9 mph 13.6 mph 54% 0 in 381 W/m2
09:11 72.5 °F 54.9 °F 30.1 in NNE 6.9 mph 13.6 mph 54% 0 in 399 W/m2
09:16 72.9 °F 54.9 °F 30.1 in North 7.6 mph 13.6 mph 53% 0 in 416 W/m2
09:21 73.2 °F 55 °F 30.1 in North 9.2 mph 13.6 mph 53% 0 in 437 W/m2
09:26 73.6 °F 55.4 °F 30.1 in North 9.2 mph 13.6 mph 53% 0 in 456 W/m2
09:31 73.9 °F 55.8 °F 30.1 in NNW 6 mph 13 mph 53% 0 in 469 W/m2
09:36 74.1 °F 55.4 °F 30.1 in North 6.9 mph 13 mph 52% 0 in 495 W/m2
09:41 74.5 °F 55.8 °F 30.1 in North 6 mph 13 mph 52% 0 in 513 W/m2
09:46 74.5 °F 55.2 °F 30.1 in North 6.9 mph 12.1 mph 51% 0 in 533 W/m2
09:51 75 °F 55.8 °F 30.1 in North 9.2 mph 13 mph 51% 0 in 549 W/m2
09:56 75.4 °F 54.9 °F 30.1 in NNW 7.6 mph 13 mph 49% 0 in 569 W/m2
10:01 75.9 °F 54.3 °F 30.1 in North 5.4 mph 13.6 mph 47% 0 in 592 W/m2
10:06 76.3 °F 55.2 °F 30.1 in NNE 6.9 mph 14.5 mph 48% 0 in 610 W/m2
10:11 77 °F 54.1 °F 30.1 in North 8.3 mph 14.5 mph 45% 0 in 635 W/m2
10:16 77.7 °F 54.7 °F 30.1 in NNW 6 mph 13.6 mph 45% 0 in 655 W/m2
10:21 77.7 °F 54.1 °F 30.1 in NNW 7.6 mph 13.6 mph 44% 0 in 671 W/m2
10:26 77.9 °F 54.3 °F 30.1 in NNW 9.2 mph 13 mph 44% 0 in 695 W/m2
10:31 77.9 °F 53.6 °F 30.1 in NNW 7.6 mph 13 mph 43% 0 in 719 W/m2
10:36 77.5 °F 53.2 °F 30.1 in NNW 10.7 mph 16.8 mph 43% 0 in 744 W/m2
10:41 78.1 °F 53.8 °F 30.1 in NNW 9.2 mph 16.8 mph 43% 0 in 767 W/m2
10:46 78.3 °F 54 °F 30.1 in North 7.6 mph 16.8 mph 43% 0 in 790 W/m2
10:51 78.3 °F 54 °F 30.1 in North 9.2 mph 19 mph 43% 0 in 805 W/m2
10:56 78.3 °F 54 °F 30.1 in North 8.3 mph 19 mph 43% 0 in 820 W/m2
11:01 79.5 °F 53.8 °F 30.1 in North 5.4 mph 18.3 mph 41% 0 in 837 W/m2
11:06 79.9 °F 54.1 °F 30.1 in North 6.9 mph 12.1 mph 41% 0 in 857 W/m2
11:11 79.5 °F 53.8 °F 30.1 in NNW 4.5 mph 14.5 mph 41% 0 in 868 W/m2
11:16 79.7 °F 54 °F 30.1 in NNW 8.3 mph 14.5 mph 41% 0 in 882 W/m2
11:21 79.5 °F 52.3 °F 30.1 in North 6 mph 13.6 mph 39% 0 in 890 W/m2
11:26 80.4 °F 54 °F 30.1 in NNW 6 mph 13.6 mph 40% 0 in 905 W/m2
11:31 80.8 °F 52.9 °F 30.1 in North 8.3 mph 15.2 mph 38% 0 in 913 W/m2
11:36 80.8 °F 52.2 °F 30 in North 5.4 mph 15.2 mph 37% 0 in 922 W/m2
11:41 81.5 °F 53.4 °F 30 in NNE 6 mph 13 mph 38% 0 in 944 W/m2
11:46 81 °F 53.1 °F 30.1 in North 7.6 mph 12.1 mph 38% 0 in 945 W/m2
11:51 81.1 °F 53.2 °F 30 in NNW 8.3 mph 12.1 mph 38% 0 in 953 W/m2
11:56 81.3 °F 53.2 °F 30 in NW 4.5 mph 11.4 mph 38% 0 in 964 W/m2
12:01 81.3 °F 53.2 °F 30 in NW 7.6 mph 14.5 mph 38% 0 in 971 W/m2
12:06 81.3 °F 53.2 °F 30 in North 6 mph 14.5 mph 38% 0 in 970 W/m2
12:11 82 °F 54 °F 30 in NNE 7.6 mph 14.5 mph 38% 0 in 975 W/m2
12:16 82 °F 53.2 °F 30 in North 7.6 mph 15.2 mph 37% 0 in 981 W/m2
12:21 81.7 °F 53.6 °F 30 in North 5.4 mph 15.2 mph 38% 0 in 982 W/m2
12:26 82.4 °F 54.3 °F 30 in NNW 5.4 mph 15.2 mph 38% 0 in 988 W/m2
12:31 82.2 °F 52.7 °F 30 in NNW 7.6 mph 15.2 mph 36% 0 in 987 W/m2
12:36 82 °F 51.6 °F 30 in NNW 9.2 mph 15.9 mph 35% 0 in 984 W/m2
12:41 82.2 °F 52.7 °F 30 in North 5.4 mph 15.9 mph 36% 0 in 986 W/m2
12:46 82.8 °F 53.1 °F 30 in NNW 9.2 mph 15.2 mph 36% 0 in 985 W/m2
12:51 82.4 °F 52.9 °F 30 in NNW 6.9 mph 15.2 mph 36% 0 in 983 W/m2
12:56 82.6 °F 53.8 °F 30 in NNW 6 mph 15.2 mph 37% 0 in 987 W/m2
13:01 83.5 °F 53.8 °F 30 in NNW 8.3 mph 15.2 mph 36% 0 in 993 W/m2
13:06 82.9 °F 53.2 °F 30 in NNW 5.4 mph 15.2 mph 36% 0 in 983 W/m2
13:11 83.3 °F 53.6 °F 30 in NNW 7.6 mph 13.6 mph 36% 0 in 986 W/m2
13:16 83.5 °F 53.1 °F 30 in NNW 7.6 mph 13.6 mph 35% 0 in 986 W/m2
13:21 84.4 °F 53.8 °F 30 in NW 4.5 mph 13 mph 35% 0 in 989 W/m2
13:26 84.9 °F 53.4 °F 30 in NNW 9.8 mph 12.1 mph 34% 0 in 985 W/m2
13:31 84.7 °F 53.2 °F 30 in NNW 5.4 mph 12.1 mph 34% 0 in 982 W/m2
13:36 85.3 °F 53.8 °F 30 in NNW 7.6 mph 12.1 mph 34% 0 in 977 W/m2
13:41 84.2 °F 52.9 °F 30 in NNW 8.3 mph 15.2 mph 34% 0 in 964 W/m2
13:46 84.6 °F 53.2 °F 30 in NNW 5.4 mph 15.2 mph 34% 0 in 964 W/m2
13:51 84.6 °F 53.2 °F 30 in North 5.4 mph 13 mph 34% 0 in 951 W/m2
13:56 84.7 °F 53.2 °F 30 in North 7.6 mph 13.6 mph 34% 0 in 947 W/m2
14:01 85.5 °F 49.6 °F 30 in NNW 6 mph 13.6 mph 29% 0 in 948 W/m2
14:06 85.8 °F 50.9 °F 30 in NNW 9.2 mph 12.1 mph 30% 0 in 945 W/m2
14:11 86 °F 50.2 °F 30 in NNW 4.5 mph 12.1 mph 29% 0 in 938 W/m2
14:16 85.5 °F 50.5 °F 30 in NNW 7.6 mph 14.5 mph 30% 0 in 924 W/m2
14:21 84.7 °F 48.9 °F 30 in NNW 9.8 mph 15.9 mph 29% 0 in 910 W/m2
14:26 84.9 °F 49.3 °F 30 in NNW 10.7 mph 15.9 mph 29% 0 in 900 W/m2
14:31 86 °F 49.3 °F 30 in NNW 7.6 mph 15.2 mph 28% 0 in 901 W/m2
14:36 86.4 °F 52.2 °F 30 in NNW 9.2 mph 12.1 mph 31% 0 in 891 W/m2
14:41 86.5 °F 50.5 °F 30 in NNW 6 mph 15.2 mph 29% 0 in 884 W/m2
14:46 86.5 °F 50.5 °F 30 in NNW 6 mph 15.2 mph 29% 0 in 874 W/m2
15:05 86 °F 50.2 °F 30 in NNW 6.9 mph 15.9 mph 29% 0 in 822 W/m2
15:10 86.7 °F 49.8 °F 30 in NNW 8.3 mph 15.9 mph 28% 0 in 812 W/m2
15:15 87.3 °F 51.3 °F 30 in NW 10.7 mph 14.5 mph 29% 0 in 774 W/m2
15:20 87.1 °F 50.2 °F 30 in NW 6 mph 14.5 mph 28% 0 in 805 W/m2
15:25 86.9 °F 47.8 °F 30 in NNW 11.4 mph 17.4 mph 26% 0 in 712 W/m2
15:30 87.3 °F 50.2 °F 30 in NNW 6 mph 17.4 mph 28% 0 in 662 W/m2
15:35 87.4 °F 51.3 °F 30 in NNW 7.6 mph 14.5 mph 29% 0 in 627 W/m2
15:40 87.8 °F 49.6 °F 30 in NW 7.6 mph 15.9 mph 27% 0 in 672 W/m2
15:45 88 °F 49.8 °F 30 in NW 7.6 mph 15.9 mph 27% 0 in 598 W/m2
15:50 88 °F 48.9 °F 29.9 in NW 4.5 mph 13 mph 26% 0 in 568 W/m2
15:55 88.7 °F 50.5 °F 29.9 in NW 3.8 mph 14.5 mph 27% 0 in 692 W/m2
16:00 89.4 °F 51.1 °F 29.9 in NNW 11.4 mph 14.5 mph 27% 0 in 570 W/m2
16:05 89.1 °F 50.7 °F 29.9 in North 6.9 mph 14.5 mph 27% 0 in 605 W/m2
16:10 88.7 °F 49.5 °F 29.9 in NW 9.2 mph 14.5 mph 26% 0 in 570 W/m2
16:15 88.3 °F 49.3 °F 29.9 in NW 5.4 mph 13.6 mph 26% 0 in 652 W/m2
16:20 88.7 °F 49.5 °F 29.9 in NW 7.6 mph 13 mph 26% 0 in 517 W/m2
16:21 88.7 °F 49.5 °F 29.9 in NW 9.8 mph 13.6 mph 26% 0 in 626 W/m2
16:26 88.5 °F 49.3 °F 29.9 in NNW 5.4 mph 13.6 mph 26% 0 in 543 W/m2
16:31 88.2 °F 50 °F 29.9 in NNW 9.2 mph 15.9 mph 27% 0 in 623 W/m2
16:36 88.3 °F 50.2 °F 29.9 in NW 8.3 mph 16.8 mph 27% 0 in 615 W/m2
16:41 88.7 °F 50.5 °F 29.9 in NW 10.7 mph 16.8 mph 27% 0 in 604 W/m2
16:46 88.5 °F 50.4 °F 29.9 in NW 6.9 mph 15.2 mph 27% 0 in 587 W/m2
16:51 88.3 °F 50.2 °F 29.9 in NW 9.2 mph 15.2 mph 27% 0 in 565 W/m2
16:56 88 °F 50.7 °F 29.9 in NNW 7.6 mph 17.4 mph 28% 0 in 555 W/m2
17:01 88.5 °F 50.4 °F 29.9 in NW 4.5 mph 17.4 mph 27% 0 in 545 W/m2
17:06 88.7 °F 49.5 °F 29.9 in NW 9.2 mph 17.4 mph 26% 0 in 529 W/m2
17:21 87.6 °F 51.4 °F 29.9 in North 9.2 mph 13 mph 29% 0 in 478 W/m2
17:51 88.2 °F 52 °F 29.9 in NW 8.3 mph 12.1 mph 29% 0 in 390 W/m2
18:21 86.7 °F 54.1 °F 29.9 in NW 6.9 mph 10.7 mph 33% 0 in 297 W/m2
18:45 86.7 °F 54.1 °F 29.9 in NW 6.9 mph 10.7 mph 33% 0 in 297 W/m2
18:50 85.8 °F 54.3 °F 29.9 in NNW 6 mph 16.8 mph 34% 0 in 214 W/m2
18:55 86 °F 53.6 °F 29.9 in NW 6.9 mph 16.8 mph 33% 0 in 202 W/m2
19:00 86.4 °F 54 °F 29.9 in NW 13 mph 21.3 mph 33% 0 in 190 W/m2
19:05 85.1 °F 54.3 °F 29.9 in NW 9.2 mph 21.3 mph 35% 0 in 55 W/m2
19:10 83.7 °F 53.2 °F 29.9 in NW 7.6 mph 21.3 mph 35% 0 in 53 W/m2
19:15 83.7 °F 54.7 °F 29.9 in NW 4.5 mph 14.5 mph 37% 0 in 65 W/m2
19:20 83.3 °F 54.3 °F 29.9 in NW 7.6 mph 13.6 mph 37% 0 in 50 W/m2
19:25 82.9 °F 54 °F 29.9 in NNW 4.5 mph 13.6 mph 37% 0 in 49 W/m2
19:30 82.8 °F 54 °F 29.9 in NNW 7.6 mph 15.2 mph 37% 0 in 46 W/m2
19:35 82.4 °F 53.6 °F 29.9 in NNW 6 mph 19.7 mph 37% 0 in 45 W/m2
19:40 82.2 °F 52 °F 29.9 in NNW 8.3 mph 19.7 mph 35% 0 in 50 W/m2
19:45 82 °F 52.5 °F 29.9 in NNW 4.5 mph 13.6 mph 36% 0 in 53 W/m2
19:50 82.2 °F 52 °F 29.9 in NNW 8.3 mph 14.5 mph 35% 0 in 74 W/m2
19:55 81.9 °F 51.6 °F 29.9 in NNW 8.3 mph 14.5 mph 35% 0 in 33 W/m2
20:00 81.3 °F 51.1 °F 29.9 in NNW 9.2 mph 15.2 mph 35% 0 in 33 W/m2
20:05 81 °F 51.4 °F 29.9 in NNW 10.7 mph 20.6 mph 36% 0 in 20 W/m2
20:10 80.4 °F 52.5 °F 29.9 in NW 9.2 mph 20.6 mph 38% 0 in 13 W/m2
20:15 79.9 °F 52.9 °F 29.9 in NW 6.9 mph 20.6 mph 39% 0 in 10 W/m2
20:20 79.7 °F 52.5 °F 29.9 in NNW 6 mph 12.1 mph 39% 0 in 6 W/m2
20:25 79.3 °F 53.1 °F 29.9 in NNW 5.4 mph 15.2 mph 40% 0 in 4 W/m2
20:30 79 °F 53.2 °F 30 in NNW 6 mph 15.2 mph 41% 0 in 1 W/m2
20:35 78.8 °F 53.8 °F 29.9 in NW 9.2 mph 15.9 mph 42% 0 in 0 W/m2
20:40 78.6 °F 54.3 °F 30 in NNW 7.6 mph 15.9 mph 43% 0 in 0 W/m2
20:45 78.4 °F 54.1 °F 30 in NW 10.7 mph 16.8 mph 43% 0 in 0 W/m2
20:50 78.3 °F 54.7 °F 30 in NW 6.9 mph 16.8 mph 44% 0 in 0 W/m2
20:55 77.9 °F 54.3 °F 30 in NNW 6.9 mph 16.8 mph 44% 0 in 0 W/m2
21:00 77.7 °F 54.1 °F 30 in NNW 5.4 mph 15.2 mph 44% 0 in 0 W/m2
21:05 77.4 °F 54.3 °F 30 in NW 5.4 mph 15.2 mph 45% 0 in 0 W/m2
21:10 77.2 °F 54.1 °F 30 in NNW 5.4 mph 9.8 mph 45% 0 in 0 W/m2
21:15 77 °F 54.1 °F 30 in NNW 6 mph 12.1 mph 45% 0 in 0 W/m2
21:20 76.8 °F 54.5 °F 30 in NNW 6 mph 12.1 mph 46% 0 in 0 W/m2
21:26 76.5 °F 54.1 °F 30 in NW 7.6 mph 12.1 mph 46% 0 in 0 W/m2
21:31 76.3 °F 54 °F 30 in NW 6.9 mph 12.1 mph 46% 0 in 0 W/m2
21:36 76.1 °F 54.3 °F 30 in NW 6 mph 12.1 mph 47% 0 in 0 W/m2
21:41 75.9 °F 54.3 °F 30 in NNW 5.4 mph 12.1 mph 47% 0 in 0 W/m2
21:46 75.7 °F 54.1 °F 30 in NNW 7.6 mph 13.6 mph 47% 0 in 0 W/m2
21:51 75.6 °F 54 °F 30 in NNW 6 mph 13.6 mph 47% 0 in 0 W/m2
21:56 75.4 °F 53.8 °F 30 in NNW 6.9 mph 11.4 mph 47% 0 in 0 W/m2
22:01 75.2 °F 53.6 °F 30 in NNW 3.8 mph 10.7 mph 47% 0 in 0 W/m2
22:06 74.8 °F 54 °F 30 in NNW 6 mph 10.7 mph 48% 0 in 0 W/m2
22:11 74.8 °F 54 °F 30 in NNW 4.5 mph 12.1 mph 48% 0 in 0 W/m2
22:16 74.7 °F 53.8 °F 30 in North 4.5 mph 12.1 mph 48% 0 in 0 W/m2
22:21 74.3 °F 53.4 °F 30 in North 5.4 mph 8.3 mph 48% 0 in 0 W/m2
22:26 74.3 °F 52.9 °F 30 in North 3.8 mph 11.4 mph 47% 0 in 0 W/m2
22:31 74.1 °F 52.5 °F 30 in NNW 3.8 mph 11.4 mph 47% 0 in 0 W/m2
22:36 74.1 °F 52.5 °F 30 in NW 5.4 mph 12.1 mph 47% 0 in 0 W/m2
22:53 73.8 °F 51.6 °F 30 in North 6 mph 10.7 mph 46% 0 in 0 W/m2
22:58 73.6 °F 51.6 °F 30 in NNW 6.9 mph 10.7 mph 46% 0 in 0 W/m2
23:03 73.2 °F 50.5 °F 30 in NNW 4.5 mph 10.7 mph 45% 0 in 0 W/m2
23:08 73.2 °F 50.5 °F 30 in NNW 3.1 mph 9.2 mph 45% 0 in 0 W/m2
23:13 73 °F 50.5 °F 30 in NNW 3.8 mph 8.3 mph 45% 0 in 0 W/m2
23:18 72.7 °F 50.2 °F 30 in NNW 2.2 mph 8.3 mph 45% 0 in 0 W/m2
23:24 72.3 °F 49.3 °F 30 in NNW 4.5 mph 6.9 mph 44% 0 in 0 W/m2
23:29 72.5 °F 48.7 °F 30 in NNW 0.7 mph 8.3 mph 43% 0 in 0 W/m2
23:34 72.1 °F 49.6 °F 30 in NNW 2.2 mph 8.3 mph 45% 0 in 0 W/m2
23:39 71.6 °F 50.4 °F 30 in NNE 2.2 mph 6 mph 47% 0 in 0 W/m2
23:44 70.9 °F 52 °F 30 in NNE 1.6 mph 6 mph 51% 0 in 0 W/m2
23:49 70.5 °F 52.5 °F 30 in NNE 1.6 mph 4.5 mph 53% 0 in 0 W/m2
23:54 69.8 °F 52.3 °F 30 in Calm   4.5 mph 54% 0 in 0 W/m2
23:59 69.3 °F 53.4 °F 30 in North 1.6 mph 3.1 mph 57% 0 in 0 W/m2
Northern Hawkes Bay. New Zealand Historic Data
Compliments of Weather Underground - 2.25 mb